FW3192 Weather Reports


Display with metric or nautical units.
time (UTC)temp
F
wind
direction
speed
MPH
gust
MPH
rain 1hr
in
rain 24hr
in
rain mn
in
humidity
%
barometer
mb
20260831101534 57 45 3.0 4.0 0.00 0.01 0.01 77 1023.7
20260831100022 58 45 3.0 5.0 0.00 0.01 0.01 76 1023.7
20260831094522 59 37 3.0 5.0 0.00 0.01 0.01 75 1023.8
20260831093009 60 68 4.0 6.0 0.00 0.01 0.01 74 1023.8
20260831091514 60 15 2.0 3.0 0.00 0.01 0.01 75 1023.8
20260831090008 61 194 0.0 0.0 0.00 0.01 0.01 78 1023.8
20260831084512 62 194 1.0 2.0 0.00 0.01 0.01 78 1023.8
20260831083007 62 223 0.0 3.0 0.00 0.01 0.01 76 1023.8
20260831081507 63 228 2.0 4.0 0.00 0.01 0.01 76 1023.9
20260831080006 65 235 1.0 3.0 0.00 0.01 0.01 73 1023.9
20260831074506 65 238 2.0 5.0 0.00 0.01 0.01 72 1023.7
20260831073051 65 234 1.0 6.0 0.00 0.01 0.01 73 1023.6
20260831071551 66 238 0.0 6.0 0.00 0.01 0.01 71 1023.8
20260831070049 66 210 2.0 7.0 0.00 0.01 0.01 71 1023.8
20260831064553 69 282 4.0 7.0 0.00 0.01 0.01 61 1023.9
20260831063046 67 258 0.0 6.0 0.00 0.01 0.01 67 1024.1
20260831061545 67 242 2.0 7.0 0.00 0.01 0.01 66 1024.3
20260831060044 67 240 2.0 8.0 0.00 0.01 0.01 68 1024.5
20260831054550 69 310 2.0 10.0 0.00 0.01 0.01 62 1024.5
20260831053024 70 17 7.0 11.0 0.00 0.01 0.01 49 1024.6
20260831051530 70 14 6.0 13.0 0.00 0.01 0.01 52 1024.7
20260831050006 70 50 5.0 11.0 0.00 0.01 0.01 51 1024.8
20260831044503 70 359 6.0 11.0 0.00 0.01 0.01 55 1025.0
20260831043059 70 25 5.0 11.0 0.00 0.01 0.01 57 1025.3
20260831041612 70 17 7.0 14.0 0.00 0.01 0.01 56 1025.6
20260831040053 69 332 4.0 12.0 0.00 0.01 0.01 57 1025.9
20260831034550 69 348 6.0 13.0 0.00 0.01 0.01 57 1026.4
20260831033045 69 342 7.0 11.0 0.00 0.01 0.01 60 1026.8
20260831031542 68 341 2.0 12.0 0.00 0.01 0.01 60 1027.1
20260831030024 68 352 5.0 10.0 0.00 0.01 0.01 62 1027.4
20260831024521 67 317 5.0 11.0 0.00 0.01 0.01 64 1027.7
20260831023017 67 19 7.0 11.0 0.00 0.01 0.01 62 1028.1
20260831021514 66 7 5.0 13.0 0.00 0.01 0.01 63 1028.4
20260831020010 65 33 6.0 10.0 0.00 0.01 0.01 63 1028.6
20260831014505 64 344 5.0 9.0 0.00 0.01 0.01 69 1028.9
20260831013001 64 12 5.0 8.0 0.00 0.01 0.01 69 1029.2
20260831011557 63 338 5.0 8.0 0.00 0.01 0.01 72 1029.4
20260831010035 62 24 4.0 11.0 0.00 0.01 0.01 74 1029.5
20260831004535 60 10 6.0 10.0 0.00 0.01 0.01 75 1029.6
20260831003013 59 10 7.0 10.0 0.00 0.01 0.01 79 1029.7
20260831001510 58 327 5.0 8.0 0.00 0.01 0.01 85 1029.8
20260831000007 55 349 5.0 8.0 0.00 0.01 0.01 94 1029.9
20260830234504 53 37 5.0 8.0 0.00 0.01 0.01 95 1029.9
20260830233101 52 52 2.0 7.0 0.00 0.01 0.01 95 1030.0
20260830231604 50 20 5.0 7.0 0.00 0.01 0.01 95 1030.1
20260830230159 49 23 3.0 6.0 0.00 0.01 0.01 96 1030.1
20260830224601 48 353 2.0 4.0 0.00 0.01 0.01 96 1030.3
20260830223046 47 31 1.0 2.0 0.00 0.01 0.01 96 1030.3
20260830221546 45 358 0.0 1.0 0.00 0.01 0.01 96 1030.4
20260830220043 45 358 0.0 1.0 0.01 0.01 0.01 97 1030.2
20260830214542 43 358 0.0 0.0 0.01 0.01 0.01 96 1030.1
20260830213041 42 358 0.0 1.0 0.01 0.01 0.01 96 1030.0
20260830211541 41 358 1.0 5.0 0.01 0.01 0.01 96 1030.0
20260830210040 41 289 0.0 5.0 0.00 0.00 0.00 96 1030.0
20260830204638 41 31 2.0 3.0 0.00 0.00 0.00 96 1029.9
20260830203012 41 33 1.0 2.0 0.00 0.00 0.00 95 1029.9
20260830201514 41 343 0.0 2.0 0.00 0.00 0.00 95 1029.8
20260830200053 41 325 1.0 3.0 0.00 0.00 0.00 95 1029.7
20260830194552 42 6 2.0 2.0 0.00 0.00 0.00 95 1029.6
20260830193051 41 347 0.0 1.0 0.00 0.00 0.00 95 1029.5
20260830191554 42 48 2.0 3.0 0.00 0.00 0.00 95 1029.4
20260830190047 42 33 0.0 1.0 0.00 0.00 0.00 95 1029.5
20260830184545 42 18 1.0 3.0 0.00 0.00 0.00 94 1029.6
20260830183041 43 53 1.0 3.0 0.00 0.00 0.00 94 1029.7
20260830181539 43 38 0.0 0.0 0.00 0.00 0.00 94 1029.8
20260830180031 43 77 0.0 0.0 0.00 0.01 0.00 94 1029.9
20260830174520 43 77 0.0 0.0 0.00 0.01 0.00 93 1029.9
20260830173057 43 38 0.0 0.0 0.00 0.01 0.00 93 1030.1
20260830171549 44 38 0.0 1.0 0.00 0.01 0.00 93 1030.2
20260830170030 44 66 0.0 2.0 0.00 0.01 0.00 93 1030.2
20260830164526 45 22 1.0 2.0 0.00 0.01 0.00 94 1030.5
20260830163018 44 294 0.0 0.0 0.00 0.01 0.00 93 1030.7
20260830161505 45 294 0.0 0.0 0.00 0.01 0.00 93 1030.8
20260830160105 44 294 0.0 1.0 0.00 0.01 0.00 92 1030.8
20260830154544 45 87 1.0 3.0 0.00 0.01 0.00 91 1030.8
20260830153041 46 56 0.0 2.0 0.00 0.01 0.00 91 1030.8
20260830151521 47 54 1.0 3.0 0.00 0.01 0.00 91 1031.0
20260830150027 47 57 0.0 3.0 0.00 0.01 0.00 91 1031.1
20260830144505 47 104 0.0 2.0 0.00 0.01 0.00 92 1031.1
20260830143004 47 57 0.0 2.0 0.00 0.01 0.00 92 1031.1
20260830141504 47 57 0.0 2.0 0.00 0.01 0.00 92 1031.2
20260830140105 47 71 0.0 0.0 0.00 0.01 0.00 92 1031.6
20260830134559 47 43 0.0 2.0 0.00 0.01 0.00 91 1031.7
20260830133109 47 37 1.0 2.0 0.00 0.01 0.00 91 1031.7
20260830131558 48 14 2.0 3.0 0.00 0.01 0.00 92 1031.7
20260830130053 48 7 2.0 3.0 0.00 0.01 0.00 90 1031.7
20260830124535 49 339 1.0 2.0 0.00 0.01 0.00 89 1031.7
20260830123032 49 99 1.0 2.0 0.00 0.01 0.00 89 1031.5
20260830121629 51 98 0.0 1.0 0.00 0.01 0.00 89 1031.4
20260830120032 51 98 0.0 2.0 0.00 0.01 0.00 89 1031.3
20260830114547 51 99 2.0 2.0 0.00 0.01 0.00 89 1031.2
20260830113021 51 41 0.0 3.0 0.00 0.01 0.00 86 1031.2
20260830111518 53 32 0.0 2.0 0.00 0.01 0.00 85 1031.1
20260830110017 54 100 0.0 3.0 0.00 0.01 0.01 83 1030.9
20260830104604 54 76 0.0 3.0 0.00 0.01 0.01 83 1030.6
20260830103059 55 130 1.0 4.0 0.00 0.01 0.01 80 1030.7